Location: Madrid
(40.4000°N, 3.6830°W)
Time: 19:23:55
(UTC+01:00)

ISS - Pass Details

Date: 17 January 2021
Orbit: 418 x 421 km, 51.6° (Epoch: 24 January)

Event Time Altitude Azimuth Distance (km) Brightness Sun altitude
Rises 19:21:28 0° 194° (SSW) 2,353 0.5 -12.5°
Reaches altitude 10° 19:24:03 10° 173° (S) 1,495 -0.8 -13.0°
Maximum altitude 19:26:18 17° 131° (SE) 1,148 -1.9 -13.4°
Enters shadow 19:26:51 16° 119° (ESE) 1,173 -1.9 -13.5°
